CAPE
nan nan nan nan nan nan nan nan nan nan nan nan nan nan nan nan nan nan nan nan nan nan nan nan nan nan nan nan nan nan nan nan nan nan 0 0 0 0 1 2 2 2 4 6 6 7 8 8 8 9 10 11 14 14 16 17 17 17 18 17 17 18 20 21 21 24 26 29 32 32 31 28 25 25 22 23 23 23 20 19 19 16 16 18 18 21
nan nan nan nan nan nan nan nan nan nan nan nan nan nan nan nan nan nan nan nan nan nan nan nan nan nan nan nan nan nan nan nan nan nan nan nan 0 0 1 1 1 2 3 5 5 6 7 8 8 8 9 10 13 13 14 15 15 15 15 14 14 14 16 16 16 18 19 22 20 20 21 19 19 19 19 20 20 20 20 20 20 19 20 23 23 26
nan nan nan nan nan nan nan nan nan nan nan nan nan nan nan nan nan nan nan nan nan nan nan nan nan nan nan nan nan nan nan nan nan nan nan nan 0 0 1 2 2 3 4 5 5 5 6 7 7 7 8 9 10 10 10 12 12 11 11 11 11 12 11 13 13 13 14 14 14 14 12 13 14 14 19 21 22 22 22 23 23 23 24 26 26 31
nan nan nan nan nan nan nan nan nan nan nan nan nan nan nan nan nan nan nan nan nan nan nan nan nan nan nan nan nan nan nan nan nan nan nan nan 0 0 1 2 2 3 4 5 5 5 6 6 6 7 7 7 7 7 7 7 7 8 8 8 8 7 8 8 8 8 9 9 9 9 11 14 18 18 21 23 24 24 24 24 24 25 26 29 29 33
nan nan nan nan nan nan nan nan nan nan nan nan nan nan nan nan nan nan nan nan nan nan nan nan nan nan nan nan nan nan nan nan nan nan nan nan nan nan 0 1 1 3 4 6 6 7 6 7 7 7 7 7 5 5 5 5 5 5 6 6 6 6 6 6 6 5 6 7 8 8 12 16 19 19 20 23 24 24 25 25 25 24 26 31 31 35
nan nan nan nan nan nan nan nan nan nan nan nan nan nan nan nan nan nan nan nan nan nan nan nan nan nan nan nan nan nan nan nan nan nan nan nan nan nan 0 1 1 2 4 6 6 8 8 8 8 9 7 5 3 3 3 4 4 4 5 5 5 5 5 5 5 5 5 6 8 8 11 13 14 14 16 19 22 22 24 23 23 23 26 32 32 36
nan nan nan nan nan nan nan nan nan nan nan nan nan nan nan nan nan nan nan nan nan nan nan nan nan nan nan nan nan nan nan nan nan nan nan nan nan nan nan 0 0 1 2 4 4 5 6 6 6 6 5 4 4 4 4 4 4 4 4 4 4 4 5 4 4 4 4 4 5 5 6 8 10 10 12 15 19 19 21 23 23 26 26 32 32 37
nan nan nan nan nan nan nan nan nan nan nan nan nan nan nan nan nan nan nan nan nan nan nan nan nan nan nan nan nan nan nan nan nan nan nan nan nan nan nan 1 1 1 1 1 1 1 1 2 2 2 2 2 3 3 3 2 2 2 1 1 1 1 1 2 2 2 2 2 2 2 2 4 8 8 12 14 18 18 24 29 29 34 33 34 34 34
nan nan nan nan nan nan nan nan nan nan nan nan nan nan nan nan nan nan nan nan nan nan nan nan nan nan nan nan nan nan nan nan nan nan nan nan nan nan nan nan nan 0 0 0 0 0 0 0 0 1 0 0 0 0 0 0 0 0 0 nan nan 0 0 1 1 1 1 1 2 2 3 5 8 8 12 16 20 20 22 25 25 31 33 35 35 36
nan nan nan nan nan nan nan nan nan nan nan nan nan nan nan nan nan nan nan nan nan nan nan nan nan nan nan nan nan nan nan nan nan nan nan nan nan nan nan nan nan nan nan nan nan nan nan nan nan nan nan nan nan nan nan nan nan nan nan nan nan nan nan 0 0 0 1 1 2 2 4 6 9 9 12 15 18 18 20 23 23 25 29 33 33 35
nan nan nan nan nan nan nan nan nan nan nan nan nan nan nan nan nan nan nan nan nan nan nan nan nan nan nan nan nan nan nan nan nan nan nan nan nan nan nan nan nan nan nan nan nan nan nan nan nan nan nan nan nan nan nan nan nan nan nan nan nan nan nan 0 0 0 1 2 2 2 4 7 10 10 12 15 18 18 20 20 20 22 24 28 28 32
nan nan nan nan nan nan nan nan nan nan nan nan nan nan nan nan nan nan nan nan nan nan nan nan nan nan nan nan nan nan nan nan nan nan nan nan nan nan nan nan nan nan nan nan nan nan nan nan nan nan nan nan nan nan nan nan nan nan nan nan nan nan nan 0 0 0 1 2 3 3 5 8 10 10 13 15 18 18 20 21 21 22 23 25 25 31
nan nan nan nan nan nan nan nan nan nan nan nan nan nan nan nan nan nan nan nan nan nan nan nan nan nan nan nan nan nan nan nan nan nan nan nan nan nan nan nan nan nan nan nan nan nan nan nan nan nan nan nan nan nan nan nan nan nan nan nan nan nan nan 0 0 1 1 2 4 4 7 9 11 11 13 15 18 18 21 23 23 24 25 27 27 29
nan nan nan nan nan nan nan nan nan nan nan nan nan nan nan nan nan nan nan nan nan nan nan nan nan nan nan nan nan nan nan nan nan nan nan nan nan nan nan nan nan nan nan nan nan nan nan nan nan nan nan nan nan nan nan nan nan nan nan nan nan nan 0 0 0 1 2 4 6 6 8 10 12 12 14 15 18 18 20 23 23 25 25 26 26 26
nan nan nan nan nan nan nan nan nan nan nan nan nan nan nan nan nan nan nan nan nan nan nan nan nan nan nan nan nan nan nan nan nan nan nan nan nan nan nan nan nan nan nan nan nan nan nan nan nan nan nan nan nan nan nan nan nan nan nan 0 0 0 0 1 1 2 3 5 7 7 8 10 12 12 13 14 17 17 19 21 21 23 24 23 23 24
nan nan nan nan nan nan nan nan nan nan nan nan nan nan nan nan nan nan nan nan nan nan nan nan nan nan nan nan nan nan nan nan nan nan nan nan nan nan nan nan nan nan nan nan nan nan nan nan nan nan nan nan nan nan nan nan nan nan 0 0 0 1 1 2 2 4 6 7 8 8 9 9 11 11 12 13 15 15 16 18 18 20 21 22 22 23
nan nan nan nan nan nan nan nan nan nan nan nan nan nan nan nan nan nan nan nan nan nan nan nan nan nan nan nan nan nan nan nan nan nan nan nan nan nan nan nan nan nan nan nan nan nan nan nan nan nan nan nan nan nan nan nan nan nan 0 0 0 1 2 4 4 4 6 7 8 8 8 9 9 9 9 11 12 12 14 16 16 17 19 20 20 22
nan nan nan nan nan nan nan nan nan nan nan nan nan nan nan nan nan nan nan nan nan nan nan nan nan nan nan nan nan nan nan nan nan nan nan nan nan nan nan nan nan nan nan nan nan nan nan nan nan nan nan nan nan nan nan nan nan nan nan 0 0 1 2 4 4 5 6 6 7 7 7 7 7 7 9 9 10 10 13 15 15 17 18 20 20 22
nan nan nan nan nan nan nan nan nan nan nan nan nan nan nan nan nan nan nan nan nan nan nan nan nan nan nan nan nan nan nan nan nan nan nan nan nan nan nan nan nan nan nan nan nan nan nan nan nan nan nan nan nan nan nan nan nan nan nan 0 0 1 3 3 3 4 5 5 5 5 5 6 7 7 8 9 10 10 12 14 14 17 20 22 22 24
nan nan nan nan nan nan nan nan nan nan nan nan nan nan nan nan nan nan nan nan nan nan nan nan nan nan nan nan nan nan nan nan nan nan nan nan nan nan nan nan nan nan nan nan nan nan nan nan nan nan nan nan nan nan nan nan nan nan nan 0 0 1 1 2 2 3 3 3 4 4 5 6 6 6 8 9 10 10 13 15 15 17 19 21 21 22
nan nan nan nan nan nan nan nan nan nan 2 0 nan nan nan nan nan nan nan nan nan nan nan nan nan nan nan nan nan nan nan nan nan nan nan nan nan nan nan nan nan nan nan nan nan nan nan nan nan nan nan nan nan nan nan nan nan nan nan 0 0 0 0 1 1 1 2 3 4 4 5 7 8 8 9 10 12 12 13 16 16 18 19 20 20 20
nan nan nan nan nan nan nan nan nan nan 2 nan nan nan nan nan nan nan nan nan nan nan nan nan nan nan nan nan nan nan nan nan nan nan nan nan nan nan nan nan nan nan nan nan nan nan nan nan nan nan nan nan nan nan nan nan nan nan nan nan nan nan 0 0 0 1 3 4 6 6 8 8 9 9 9 11 12 12 13 15 15 18 18 20 20 19
nan nan nan nan nan nan nan 0 0 0 nan nan nan nan nan nan nan nan nan nan nan nan nan nan nan nan nan nan nan nan nan nan nan nan nan nan nan nan nan nan nan nan nan nan nan nan nan nan nan nan nan nan nan nan nan nan nan nan nan nan nan nan 0 1 1 2 5 7 8 8 9 9 9 9 9 11 12 12 12 12 12 14 16 19 19 17
3 3 2 1 1 0 0 nan nan nan nan nan nan nan nan nan nan nan nan nan nan nan nan nan nan nan nan nan nan nan nan nan nan nan nan nan nan nan nan nan nan nan nan nan nan nan nan nan nan nan nan nan nan nan nan nan nan nan nan nan nan 0 1 3 3 6 7 8 9 9 9 9 10 10 9 9 10 10 10 12 12 13 14 15 15 17
nan nan 0 nan nan nan nan nan nan nan nan nan nan nan nan nan nan nan nan nan nan nan nan nan nan nan 0 1 nan nan nan nan nan nan nan nan nan nan nan nan nan nan nan nan nan nan nan nan nan nan nan nan nan nan nan nan nan nan nan nan nan 0 2 4 4 4 4 5 5 5 6 6 8 8 8 10 9 9 9 11 11 11 13 14 14 14
nan nan nan nan nan 4 10 9 8 8 nan nan nan nan nan nan nan nan nan nan nan nan nan nan nan 2 1 nan nan nan nan nan nan nan nan nan nan nan nan nan nan nan nan nan nan nan nan nan nan nan nan nan nan nan nan nan nan nan nan nan nan 0 1 0 0 0 0 0 1 1 3 5 7 7 9 9 10 10 11 10 10 11 12 13 13 14
15 14 19 22 22 24 27 26 28 28 29 17 0 0 nan nan nan nan nan nan nan nan 0 3 3 3 nan nan nan nan nan nan nan nan nan nan nan nan nan nan nan nan nan nan nan nan nan nan nan nan nan nan nan nan nan nan nan nan nan nan nan nan nan nan nan nan nan 0 1 1 3 6 8 8 8 10 10 10 12 11 11 11 13 14 14 14
20 20 23 23 23 25 26 28 29 29 31 31 31 31 9 nan nan nan nan 0 0 1 6 4 4 1 0 nan nan nan nan nan nan nan nan nan nan nan nan nan nan nan nan nan nan nan nan nan nan nan nan nan nan nan nan nan nan nan nan nan nan nan nan nan nan nan nan 0 1 1 4 6 7 7 9 10 11 11 11 12 12 13 14 7 7 nan
16 18 20 23 23 26 29 31 33 33 34 35 34 34 19 0 0 0 1 1 1 2 6 4 4 1 0 nan nan nan nan nan nan nan nan nan nan nan nan nan nan nan nan nan nan nan nan nan nan nan nan nan nan nan nan nan nan nan nan nan nan nan nan nan nan nan nan 1 2 2 4 6 8 8 10 11 12 12 13 13 13 13 8 0 0 nan
6 13 17 19 19 22 21 15 24 24 32 31 33 33 23 2 2 2 2 3 3 3 6 4 4 1 nan nan nan nan nan nan nan nan nan nan nan nan nan nan nan nan nan nan nan nan nan nan nan nan nan nan nan nan nan nan nan nan nan nan nan nan nan nan nan nan 0 1 2 2 5 7 10 10 10 11 11 11 11 11 11 9 0 nan nan nan
nan 1 0 1 1 1 nan nan 2 2 19 23 23 23 13 2 3 3 3 5 5 3 3 2 2 0 nan nan nan nan nan nan nan nan nan nan nan nan nan nan nan nan nan nan nan nan nan nan nan nan nan nan nan nan nan nan nan nan nan nan nan nan nan nan nan nan 0 1 3 3 5 7 8 8 8 8 7 7 8 9 9 5 nan nan nan nan
nan nan nan nan nan nan nan nan nan nan nan nan 2 2 5 2 nan nan nan nan nan nan nan nan nan nan nan nan nan nan nan nan nan nan nan nan nan nan nan nan nan nan nan nan nan nan nan nan nan nan nan nan nan nan nan nan nan nan nan nan nan nan nan nan nan 0 0 2 2 2 1 1 1 1 1 2 4 4 6 6 6 8 nan nan nan nan
0 nan nan nan nan nan nan nan nan nan nan nan nan nan nan nan 1 1 nan nan nan nan nan nan nan nan nan nan nan nan nan nan nan nan nan nan nan nan nan nan nan nan nan nan nan nan nan nan nan nan nan nan nan nan nan nan nan nan nan nan nan nan nan nan nan nan nan nan nan nan 0 nan 0 0 1 3 4 4 6 7 7 9 6 nan nan nan
1 0 nan nan nan nan nan nan nan nan nan nan nan nan nan nan nan nan nan nan nan nan nan nan nan nan nan nan nan nan nan nan nan nan nan nan nan nan nan nan nan nan nan nan nan nan nan nan nan nan nan nan nan nan nan nan nan nan nan nan nan nan nan nan nan nan nan nan nan nan nan nan nan nan 0 2 5 5 7 8 8 12 14 4 4 nan
1 1 nan nan nan nan nan nan nan nan nan nan nan nan nan nan nan nan nan nan nan nan nan nan nan nan nan nan nan nan nan nan nan nan nan nan nan nan nan nan nan nan nan nan nan nan nan nan nan nan nan nan nan nan nan nan nan nan nan nan nan nan nan nan nan nan nan nan nan nan nan nan nan nan nan 1 5 5 8 10 10 11 12 14 14 6
nan nan nan nan nan nan nan nan nan nan nan nan nan nan nan nan nan nan nan nan nan nan nan nan nan nan nan nan nan nan nan nan nan nan nan nan nan nan nan nan nan nan nan nan nan nan nan nan nan nan nan nan nan nan nan nan nan nan nan nan nan nan nan nan nan nan nan nan nan nan nan nan nan nan nan 3 7 7 7 7 7 8 8 10 10 10
nan nan nan nan nan nan nan nan nan nan nan nan nan nan nan nan nan nan nan nan nan nan nan nan nan nan nan nan nan nan nan nan nan nan nan nan nan nan nan nan nan nan nan nan nan nan nan nan nan nan nan nan nan nan nan nan nan nan nan nan nan nan nan nan nan nan nan nan nan nan nan nan nan nan nan 2 1 1 3 6 6 5 9 11 11 12
nan nan nan nan nan nan nan nan nan nan nan nan nan nan nan nan nan nan nan nan nan nan nan nan nan nan nan nan nan nan nan nan nan nan nan nan nan nan nan nan nan nan nan nan nan nan nan nan nan nan nan nan nan nan nan nan nan nan nan nan nan nan nan nan nan nan nan nan nan nan nan nan nan nan nan nan nan nan nan nan nan nan 8 6 6 12
nan nan nan nan nan nan nan nan nan nan nan nan nan nan nan nan nan nan nan nan nan nan nan nan nan nan nan nan nan nan nan nan nan nan nan nan nan nan nan nan nan nan nan nan nan nan nan nan nan nan nan nan nan nan nan nan nan nan nan nan nan nan nan nan nan nan nan nan nan nan nan nan nan nan nan nan nan nan nan nan nan nan nan nan nan nan
1 nan nan 0 0 nan nan nan nan nan nan nan nan nan nan nan nan nan nan nan nan nan nan nan nan nan nan nan nan nan nan nan nan nan nan nan nan nan nan nan nan nan nan nan nan nan nan nan nan nan nan nan nan nan nan nan nan nan nan nan nan nan nan nan nan nan nan nan nan nan nan nan nan nan nan nan nan nan nan nan nan nan nan nan nan nan
9 4 1 nan nan nan nan nan nan nan nan nan nan nan nan nan nan nan nan nan nan nan nan nan nan nan nan nan nan nan nan nan nan nan nan nan nan nan nan nan nan nan nan nan nan nan 0 nan nan nan nan nan nan nan nan nan nan nan 4 nan nan nan nan nan nan nan nan nan nan nan nan nan nan nan nan nan nan nan nan nan nan nan nan nan nan nan
14 12 3 nan nan nan nan nan nan nan nan nan nan nan nan nan nan nan nan nan nan nan nan nan nan nan nan nan nan nan nan nan nan nan nan nan nan nan nan nan nan nan nan nan nan nan 0 nan nan nan nan nan nan nan nan nan nan nan 2 0 0 nan 0 nan nan nan nan nan nan nan nan nan nan nan nan nan nan nan nan nan nan nan nan nan nan nan
8 8 3 nan nan nan nan nan nan nan nan nan nan nan nan nan nan nan nan nan nan nan nan nan nan nan nan nan nan nan nan nan nan nan nan nan nan nan nan nan nan nan nan nan nan nan nan nan nan nan nan nan nan nan nan nan nan nan nan 0 0 0 nan nan nan nan nan nan nan nan nan nan nan nan nan nan nan nan nan nan nan 2 1 nan nan nan
4 1 nan nan nan nan nan nan nan nan nan nan nan nan nan nan nan nan nan nan nan nan nan nan nan nan nan nan nan nan nan nan nan nan nan nan nan nan nan nan nan nan nan nan nan nan nan nan nan nan nan nan nan nan nan nan nan nan nan 0 0 0 nan nan nan nan nan nan nan nan nan nan nan nan nan nan nan nan nan nan nan nan nan nan nan nan
nan nan nan nan nan nan nan nan nan nan nan nan nan nan nan nan nan nan nan nan nan nan nan nan nan nan nan nan nan nan nan nan nan nan nan nan nan nan nan nan nan nan nan nan nan nan nan nan nan nan nan nan nan nan nan nan nan nan 0 0 0 0 nan nan nan nan nan nan nan nan nan nan nan nan nan nan nan nan nan nan nan nan nan nan nan nan
nan nan nan nan nan nan nan nan nan nan nan nan nan nan nan nan nan nan nan nan nan nan nan nan nan nan nan nan nan nan nan nan nan nan nan nan nan nan nan nan nan nan nan nan nan nan nan nan nan nan nan nan 0 0 nan nan nan nan nan 1 1 nan nan nan nan nan nan nan nan nan nan nan nan nan nan nan nan nan nan nan nan nan nan nan nan nan
nan nan nan nan nan nan nan nan nan nan nan nan nan nan nan nan nan nan nan nan nan nan nan nan nan nan nan nan nan nan nan nan nan nan nan nan nan nan nan nan nan nan nan nan nan nan nan nan nan nan nan nan 0 0 nan nan nan nan nan nan nan nan nan nan nan nan nan nan nan nan nan nan nan nan 0 0 nan nan nan nan nan nan nan nan nan nan
nan nan nan nan nan nan nan nan nan nan nan nan nan nan nan nan nan nan nan nan nan nan nan nan nan nan nan nan nan nan nan nan nan nan nan nan nan nan nan nan nan nan nan nan nan 0 nan nan nan nan 0 nan 0 0 nan nan nan nan nan nan nan nan nan nan nan nan nan nan nan nan nan nan 0 0 1 0 nan nan nan nan nan nan nan nan nan nan
nan nan nan nan nan nan nan nan nan nan nan nan nan nan nan nan nan nan nan nan nan nan nan nan nan nan nan nan nan nan nan nan nan nan nan nan nan nan nan nan nan nan nan nan nan nan 0 2 2 2 1 1 0 0 0 nan nan nan nan nan nan nan nan nan nan nan nan nan nan nan 0 0 0 0 nan nan nan nan nan nan nan nan nan nan nan nan
nan nan nan nan nan nan nan nan nan nan nan nan nan nan nan nan nan nan nan nan nan nan nan nan nan nan nan nan nan nan nan nan nan nan nan nan nan nan nan nan nan nan nan nan nan nan nan 0 0 3 12 7 2 2 0 nan nan nan nan nan nan nan nan nan nan 0 nan 0 0 0 nan nan nan nan nan nan nan nan nan nan nan nan nan nan nan nan
nan nan nan nan nan nan nan nan nan nan nan nan nan nan nan nan nan nan nan nan nan nan nan nan nan nan nan nan nan nan nan nan nan nan nan nan nan nan nan nan nan nan nan nan nan nan nan nan nan nan nan 13 5 5 nan nan nan nan nan 0 0 0 0 0 0 0 2 0 nan nan nan nan nan nan nan nan nan nan nan nan nan nan nan nan nan nan
CIN
nan nan nan nan nan nan nan nan nan nan nan nan nan nan nan nan nan nan nan nan nan nan nan nan nan nan nan nan nan nan nan nan nan nan -0 -0 -0 -0 -0 -0 -0 -0 -0 -0 -0 -0 -0 -0 -0 -0 -0 -0 -0 -0 -0 -0 -0 -0 -0 -0 -0 -0 -0 -0 -0 -0 -0 -0 -0 -0 -0 -0 -0 -0 -0 -0 -0 -0 -0 -0 -0 -0 -0 -0 -0 -0
nan nan nan nan nan nan nan nan nan nan nan nan nan nan nan nan nan nan nan nan nan nan nan nan nan nan nan nan nan nan nan nan nan nan nan nan -0 -0 -0 -0 -0 -0 -0 -0 -0 -0 -0 -0 -0 -0 -0 -0 -0 -0 -0 -0 -0 -0 -0 -0 -0 -0 -0 -0 -0 -0 -0 -0 -0 -0 -0 -0 -0 -0 -0 -0 -0 -0 -0 -0 -0 -0 -0 -0 -0 -0
nan nan nan nan nan nan nan nan nan nan nan nan nan nan nan nan nan nan nan nan nan nan nan nan nan nan nan nan nan nan nan nan nan nan nan nan -0 -0 -0 -0 -0 -0 -0 -0 -0 -0 -0 -0 -0 -0 -0 -0 -0 -0 -0 -0 -0 -0 -0 -0 -0 -0 -0 -0 -0 -0 -0 -0 -0 -0 -0 -0 -0 -0 -0 -0 -0 -0 -0 -0 -0 -0 -0 -0 -0 -0
nan nan nan nan nan nan nan nan nan nan nan nan nan nan nan nan nan nan nan nan nan nan nan nan nan nan nan nan nan nan nan nan nan nan nan nan -0 -0 -0 -0 -0 -0 -0 -0 -0 -0 -0 -0 -0 -0 -0 -0 -0 -0 -0 -0 -0 -0 -0 -0 -0 -0 -0 -0 -0 -0 -0 -0 -0 -0 -0 -0 -0 -0 -0 -0 -0 -0 -0 -0 -0 -0 -0 -0 -0 -0
nan nan nan nan nan nan nan nan nan nan nan nan nan nan nan nan nan nan nan nan nan nan nan nan nan nan nan nan nan nan nan nan nan nan nan nan nan nan -0 -0 -0 -0 -0 -0 -0 -0 -0 -0 -0 -0 -0 -0 -0 -0 -0 -0 -0 -0 -0 -0 -0 -0 -0 -0 -0 -0 -0 -0 -0 -0 -0 -0 -0 -0 -0 -0 -0 -0 -0 -0 -0 -0 -0 -0 -0 -0
nan nan nan nan nan nan nan nan nan nan nan nan nan nan nan nan nan nan nan nan nan nan nan nan nan nan nan nan nan nan nan nan nan nan nan nan nan nan -0 -0 -0 -0 -0 -0 -0 -0 -0 -0 -0 -0 -0 -0 -0 -0 -0 -0 -0 -0 -0 -0 -0 -0 -0 -0 -0 -0 -0 -0 -0 -0 -0 -0 -0 -0 -0 -0 -0 -0 -0 -0 -0 -0 -0 -0 -0 -0
nan nan nan nan nan nan nan nan nan nan nan nan nan nan nan nan nan nan nan nan nan nan nan nan nan nan nan nan nan nan nan nan nan nan nan nan nan nan nan -0 -0 -0 -0 -0 -0 -0 -0 -0 -0 -0 -0 -0 -0 -0 -0 -0 -0 -0 -0 -0 -0 -0 -0 -0 -0 -0 -0 -0 -0 -0 -0 -0 -0 -0 -0 -0 -0 -0 -0 -0 -0 -0 -0 -0 -0 -0
nan nan nan nan nan nan nan nan nan nan nan nan nan nan nan nan nan nan nan nan nan nan nan nan nan nan nan nan nan nan nan nan nan nan nan nan nan nan nan -0 -0 -0 -0 -0 -0 -0 -0 -0 -0 -0 -0 -0 -0 -0 -0 -0 -0 -0 -0 -0 -0 -0 -0 -0 -0 -0 -0 -0 -0 -0 -0 -0 -0 -0 -0 -0 -0 -0 -0 -0 -0 -0 -0 -0 -0 -0
nan nan nan nan nan nan nan nan nan nan nan nan nan nan nan nan nan nan nan nan nan nan nan nan nan nan nan nan nan nan nan nan nan nan nan nan nan nan nan nan nan -0 -0 -0 -0 -0 -0 -0 -0 -0 -0 -0 -0 -0 -0 -0 -0 -0 -0 nan nan -0 -0 -0 -0 -0 -0 -0 -0 -0 -0 -0 -0 -0 -0 -0 -0 -0 -0 -0 -0 -0 -0 -0 -0 -0
nan nan nan nan nan nan nan nan nan nan nan nan nan nan nan nan nan nan nan nan nan nan nan nan nan nan nan nan nan nan nan nan nan nan nan nan nan nan nan nan nan nan nan nan nan nan nan nan nan nan nan nan nan nan nan nan nan nan nan nan nan nan nan -0 -0 -0 -0 -0 -0 -0 -0 -0 -0 -0 -0 -0 -0 -0 -0 -0 -0 -0 -0 -0 -0 -0
nan nan nan nan nan nan nan nan nan nan nan nan nan nan nan nan nan nan nan nan nan nan nan nan nan nan nan nan nan nan nan nan nan nan nan nan nan nan nan nan nan nan nan nan nan nan nan nan nan nan nan nan nan nan nan nan nan nan nan nan nan nan nan -0 -0 -0 -0 -0 -0 -0 -0 -0 -0 -0 -0 -0 -0 -0 -0 -0 -0 -0 -0 -0 -0 -0
nan nan nan nan nan nan nan nan nan nan nan nan nan nan nan nan nan nan nan nan nan nan nan nan nan nan nan nan nan nan nan nan nan nan nan nan nan nan nan nan nan nan nan nan nan nan nan nan nan nan nan nan nan nan nan nan nan nan nan nan nan nan nan -0 -0 -0 -0 -0 -0 -0 -0 -0 -0 -0 -0 -0 -0 -0 -0 -0 -0 -0 -0 -0 -0 -0
nan nan nan nan nan nan nan nan nan nan nan nan nan nan nan nan nan nan nan nan nan nan nan nan nan nan nan nan nan nan nan nan nan nan nan nan nan nan nan nan nan nan nan nan nan nan nan nan nan nan nan nan nan nan nan nan nan nan nan nan nan nan nan -0 -0 -0 -0 -0 -0 -0 -0 -0 -0 -0 -0 -0 -0 -0 -0 -0 -0 -0 -0 -0 -0 -0
nan nan nan nan nan nan nan nan nan nan nan nan nan nan nan nan nan nan nan nan nan nan nan nan nan nan nan nan nan nan nan nan nan nan nan nan nan nan nan nan nan nan nan nan nan nan nan nan nan nan nan nan nan nan nan nan nan nan nan nan nan nan -0 -0 -0 -0 -0 -0 -0 -0 -0 -0 -0 -0 -0 -0 -0 -0 -0 -0 -0 -0 -0 -0 -0 -0
nan nan nan nan nan nan nan nan nan nan nan nan nan nan nan nan nan nan nan nan nan nan nan nan nan nan nan nan nan nan nan nan nan nan nan nan nan nan nan nan nan nan nan nan nan nan nan nan nan nan nan nan nan nan nan nan nan nan nan -0 -0 -0 -0 -0 -0 -0 -0 -0 -0 -0 -0 -0 -0 -0 -0 -0 -0 -0 -0 -0 -0 -0 -0 -0 -0 -0
nan nan nan nan nan nan nan nan nan nan nan nan nan nan nan nan nan nan nan nan nan nan nan nan nan nan nan nan nan nan nan nan nan nan nan nan nan nan nan nan nan nan nan nan nan nan nan nan nan nan nan nan nan nan nan nan nan nan -0 -0 -0 -0 -0 -0 -0 -0 -0 -0 -0 -0 -0 -0 -0 -0 -0 -0 -0 -0 -0 -0 -0 -0 -0 -0 -0 -0
nan nan nan nan nan nan nan nan nan nan nan nan nan nan nan nan nan nan nan nan nan nan nan nan nan nan nan nan nan nan nan nan nan nan nan nan nan nan nan nan nan nan nan nan nan nan nan nan nan nan nan nan nan nan nan nan nan nan -0 -0 -0 -0 -0 -0 -0 -0 -0 -0 -0 -0 -0 -0 -0 -0 -0 -0 -0 -0 -0 -0 -0 -0 -0 -0 -0 -0
nan nan nan nan nan nan nan nan nan nan nan nan nan nan nan nan nan nan nan nan nan nan nan nan nan nan nan nan nan nan nan nan nan nan nan nan nan nan nan nan nan nan nan nan nan nan nan nan nan nan nan nan nan nan nan nan nan nan nan -0 -0 -0 -0 -0 -0 -0 -0 -0 -0 -0 -0 -0 -0 -0 -0 -0 -0 -0 -0 -0 -0 -0 -0 -0 -0 -0
nan nan nan nan nan nan nan nan nan nan nan nan nan nan nan nan nan nan nan nan nan nan nan nan nan nan nan nan nan nan nan nan nan nan nan nan nan nan nan nan nan nan nan nan nan nan nan nan nan nan nan nan nan nan nan nan nan nan nan -0 -0 -0 -0 -0 -0 -0 -0 -0 -0 -0 -0 -0 -0 -0 -0 -0 -0 -0 -0 -0 -0 -0 -0 -0 -0 -0
nan nan nan nan nan nan nan nan nan nan nan nan nan nan nan nan nan nan nan nan nan nan nan nan nan nan nan nan nan nan nan nan nan nan nan nan nan nan nan nan nan nan nan nan nan nan nan nan nan nan nan nan nan nan nan nan nan nan nan -0 -0 -0 -0 -0 -0 -0 -0 -0 -0 -0 -0 -0 -0 -0 -0 -0 -0 -0 -0 -0 -0 -0 -0 -0 -0 -0
nan nan nan nan nan nan nan nan nan nan -12 -36 nan nan nan nan nan nan nan nan nan nan nan nan nan nan nan nan nan nan nan nan nan nan nan nan nan nan nan nan nan nan nan nan nan nan nan nan nan nan nan nan nan nan nan nan nan nan nan -0 -0 -0 -0 -0 -0 -0 -0 -0 -0 -0 -0 -0 -0 -0 -0 -0 -0 -0 -0 -0 -0 -0 -0 -0 -0 -0
nan nan nan nan nan nan nan nan nan nan -23 nan nan nan nan nan nan nan nan nan nan nan nan nan nan nan nan nan nan nan nan nan nan nan nan nan nan nan nan nan nan nan nan nan nan nan nan nan nan nan nan nan nan nan nan nan nan nan nan nan nan nan -0 -0 -0 -0 -0 -0 -0 -0 -0 -0 -0 -0 -0 -0 -0 -0 -0 -0 -0 -0 -0 -0 -0 -0
nan nan nan nan nan nan nan -29 -33 -33 nan nan nan nan nan nan nan nan nan nan nan nan nan nan nan nan nan nan nan nan nan nan nan nan nan nan nan nan nan nan nan nan nan nan nan nan nan nan nan nan nan nan nan nan nan nan nan nan nan nan nan nan -0 -0 -0 -0 -0 -0 -0 -0 -0 -0 -0 -0 -0 -0 -0 -0 -0 -0 -0 -0 -0 -0 -0 -0
-7 -6 -9 -14 -14 -23 -27 nan nan nan nan nan nan nan nan nan nan nan nan nan nan nan nan nan nan nan nan nan nan nan nan nan nan nan nan nan nan nan nan nan nan nan nan nan nan nan nan nan nan nan nan nan nan nan nan nan nan nan nan nan nan -0 -0 -0 -0 -0 -0 -0 -0 -0 -0 -0 -0 -0 -0 -0 -0 -0 -0 -0 -0 -0 -0 -0 -0 -0
nan nan -14 nan nan nan nan nan nan nan nan nan nan nan nan nan nan nan nan nan nan nan nan nan nan nan -10 -8 nan nan nan nan nan nan nan nan nan nan nan nan nan nan nan nan nan nan nan nan nan nan nan nan nan nan nan nan nan nan nan nan nan -0 -0 -0 -0 -0 -0 -0 -0 -0 -0 -0 -0 -0 -0 -0 -0 -0 -0 -0 -0 -0 -0 -0 -0 -0
nan nan nan nan nan -5 -1 -1 -1 -1 nan nan nan nan nan nan nan nan nan nan nan nan nan nan nan -3 -6 nan nan nan nan nan nan nan nan nan nan nan nan nan nan nan nan nan nan nan nan nan nan nan nan nan nan nan nan nan nan nan nan nan nan -0 -0 -0 -0 -0 -0 -0 -0 -0 -0 -0 -0 -0 -0 -0 -0 -0 -0 -0 -0 -0 -0 -0 -0 -0
-0 -0 -0 -0 -0 -0 -0 -0 -0 -0 -0 -0 -33 -33 nan nan nan nan nan nan nan nan -7 -2 -2 -3 nan nan nan nan nan nan nan nan nan nan nan nan nan nan nan nan nan nan nan nan nan nan nan nan nan nan nan nan nan nan nan nan nan nan nan nan nan nan nan nan nan -0 -0 -0 -0 -0 -0 -0 -0 -0 -0 -0 -0 -0 -0 -0 -0 -0 -0 -0
-0 -0 -0 -0 -0 -0 -0 -0 -0 -0 -0 -0 -0 -0 -11 nan nan nan nan -12 -12 -10 -3 -2 -2 -6 -15 nan nan nan nan nan nan nan nan nan nan nan nan nan nan nan nan nan nan nan nan nan nan nan nan nan nan nan nan nan nan nan nan nan nan nan nan nan nan nan nan -0 -0 -0 -0 -0 -0 -0 -0 -0 -0 -0 -0 -0 -0 -0 -0 -4 -4 nan
-0 -0 -0 -0 -0 -0 -0 -0 -0 -0 -0 -0 -0 -0 -4 -29 -12 -12 -8 -15 -15 -9 -3 -4 -4 -10 -15 nan nan nan nan nan nan nan nan nan nan nan nan nan nan nan nan nan nan nan nan nan nan nan nan nan nan nan nan nan nan nan nan nan nan nan nan nan nan nan nan -0 -0 -0 -0 -0 -0 -0 -0 -0 -0 -0 -0 -0 -0 -0 -0 -23 -23 nan
-1 -0 -0 -0 -0 -0 -0 -0 -0 -0 -0 -0 -0 -0 -0 -23 -12 -12 -11 -14 -14 -7 -4 -5 -5 -11 nan nan nan nan nan nan nan nan nan nan nan nan nan nan nan nan nan nan nan nan nan nan nan nan nan nan nan nan nan nan nan nan nan nan nan nan nan nan nan nan -0 -0 -0 -0 -0 -0 -0 -0 -0 -0 -0 -0 -0 -0 -0 -0 -29 nan nan nan
nan -13 -14 -15 -15 -17 nan nan -7 -7 -0 -0 -0 -0 -0 -22 -17 -17 -15 -10 -10 -8 -7 -9 -9 -14 nan nan nan nan nan nan nan nan nan nan nan nan nan nan nan nan nan nan nan nan nan nan nan nan nan nan nan nan nan nan nan nan nan nan nan nan nan nan nan nan -0 -0 -0 -0 -0 -0 -0 -0 -0 -0 -0 -0 -0 -0 -0 -0 nan nan nan nan
nan nan nan nan nan nan nan nan nan nan nan nan -13 -13 -8 -12 nan nan nan nan nan nan nan nan nan nan nan nan nan nan nan nan nan nan nan nan nan nan nan nan nan nan nan nan nan nan nan nan nan nan nan nan nan nan nan nan nan nan nan nan nan nan nan nan nan -0 -0 -0 -0 -0 -0 -0 -0 -0 -0 -0 -0 -0 -0 -0 -0 -0 nan nan nan nan
-23 nan nan nan nan nan nan nan nan nan nan nan nan nan nan nan -19 -19 nan nan nan nan nan nan nan nan nan nan nan nan nan nan nan nan nan nan nan nan nan nan nan nan nan nan nan nan nan nan nan nan nan nan nan nan nan nan nan nan nan nan nan nan nan nan nan nan nan nan nan nan -0 nan -0 -0 -0 -0 -0 -0 -0 -0 -0 -0 -2 nan nan nan
-23 -23 nan nan nan nan nan nan nan nan nan nan nan nan nan nan nan nan nan nan nan nan nan nan nan nan nan nan nan nan nan nan nan nan nan nan nan nan nan nan nan nan nan nan nan nan nan nan nan nan nan nan nan nan nan nan nan nan nan nan nan nan nan nan nan nan nan nan nan nan nan nan nan nan -0 -0 -0 -0 -0 -0 -0 -0 -0 -10 -10 nan
-18 -15 nan nan nan nan nan nan nan nan nan nan nan nan nan nan nan nan nan nan nan nan nan nan nan nan nan nan nan nan nan nan nan nan nan nan nan nan nan nan nan nan nan nan nan nan nan nan nan nan nan nan nan nan nan nan nan nan nan nan nan nan nan nan nan nan nan nan nan nan nan nan nan nan nan -0 -0 -0 -0 -0 -0 -0 -0 -0 -0 -1
nan nan nan nan nan nan nan nan nan nan nan nan nan nan nan nan nan nan nan nan nan nan nan nan nan nan nan nan nan nan nan nan nan nan nan nan nan nan nan nan nan nan nan nan nan nan nan nan nan nan nan nan nan nan nan nan nan nan nan nan nan nan nan nan nan nan nan nan nan nan nan nan nan nan nan -0 -0 -0 -0 -0 -0 -0 -0 -0 -0 -0
nan nan nan nan nan nan nan nan nan nan nan nan nan nan nan nan nan nan nan nan nan nan nan nan nan nan nan nan nan nan nan nan nan nan nan nan nan nan nan nan nan nan nan nan nan nan nan nan nan nan nan nan nan nan nan nan nan nan nan nan nan nan nan nan nan nan nan nan nan nan nan nan nan nan nan -0 -0 -0 -0 -0 -0 -0 -0 -0 -0 -0
nan nan nan nan nan nan nan nan nan nan nan nan nan nan nan nan nan nan nan nan nan nan nan nan nan nan nan nan nan nan nan nan nan nan nan nan nan nan nan nan nan nan nan nan nan nan nan nan nan nan nan nan nan nan nan nan nan nan nan nan nan nan nan nan nan nan nan nan nan nan nan nan nan nan nan nan nan nan nan nan nan nan -0 -0 -0 -0
nan nan nan nan nan nan nan nan nan nan nan nan nan nan nan nan nan nan nan nan nan nan nan nan nan nan nan nan nan nan nan nan nan nan nan nan nan nan nan nan nan nan nan nan nan nan nan nan nan nan nan nan nan nan nan nan nan nan nan nan nan nan nan nan nan nan nan nan nan nan nan nan nan nan nan nan nan nan nan nan nan nan nan nan nan nan
-10 nan nan -18 -18 nan nan nan nan nan nan nan nan nan nan nan nan nan nan nan nan nan nan nan nan nan nan nan nan nan nan nan nan nan nan nan nan nan nan nan nan nan nan nan nan nan nan nan nan nan nan nan nan nan nan nan nan nan nan nan nan nan nan nan nan nan nan nan nan nan nan nan nan nan nan nan nan nan nan nan nan nan nan nan nan nan
-3 -7 -15 nan nan nan nan nan nan nan nan nan nan nan nan nan nan nan nan nan nan nan nan nan nan nan nan nan nan nan nan nan nan nan nan nan nan nan nan nan nan nan nan nan nan nan -5 nan nan nan nan nan nan nan nan nan nan nan -0 nan nan nan nan nan nan nan nan nan nan nan nan nan nan nan nan nan nan nan nan nan nan nan nan nan nan nan
-2 -4 -16 nan nan nan nan nan nan nan nan nan nan nan nan nan nan nan nan nan nan nan nan nan nan nan nan nan nan nan nan nan nan nan nan nan nan nan nan nan nan nan nan nan nan nan -5 nan nan nan nan nan nan nan nan nan nan nan -0 -3 -3 nan -5 nan nan nan nan nan nan nan nan nan nan nan nan nan nan nan nan nan nan nan nan nan nan nan
-4 -7 -19 nan nan nan nan nan nan nan nan nan nan nan nan nan nan nan nan nan nan nan nan nan nan nan nan nan nan nan nan nan nan nan nan nan nan nan nan nan nan nan nan nan nan nan nan nan nan nan nan nan nan nan nan nan nan nan nan -2 -2 -2 nan nan nan nan nan nan nan nan nan nan nan nan nan nan nan nan nan nan nan -3 -6 nan nan nan
-6 -16 nan nan nan nan nan nan nan nan nan nan nan nan nan nan nan nan nan nan nan nan nan nan nan nan nan nan nan nan nan nan nan nan nan nan nan nan nan nan nan nan nan nan nan nan nan nan nan nan nan nan nan nan nan nan nan nan nan -6 -6 -5 nan nan nan nan nan nan nan nan nan nan nan nan nan nan nan nan nan nan nan nan nan nan nan nan
nan nan nan nan nan nan nan nan nan nan nan nan nan nan nan nan nan nan nan nan nan nan nan nan nan nan nan nan nan nan nan nan nan nan nan nan nan nan nan nan nan nan nan nan nan nan nan nan nan nan nan nan nan nan nan nan nan nan -2 -3 -3 -6 nan nan nan nan nan nan nan nan nan nan nan nan nan nan nan nan nan nan nan nan nan nan nan nan
nan nan nan nan nan nan nan nan nan nan nan nan nan nan nan nan nan nan nan nan nan nan nan nan nan nan nan nan nan nan nan nan nan nan nan nan nan nan nan nan nan nan nan nan nan nan nan nan nan nan nan nan -9 -9 nan nan nan nan nan -3 -3 nan nan nan nan nan nan nan nan nan nan nan nan nan nan nan nan nan nan nan nan nan nan nan nan nan
nan nan nan nan nan nan nan nan nan nan nan nan nan nan nan nan nan nan nan nan nan nan nan nan nan nan nan nan nan nan nan nan nan nan nan nan nan nan nan nan nan nan nan nan nan nan nan nan nan nan nan nan -7 -7 nan nan nan nan nan nan nan nan nan nan nan nan nan nan nan nan nan nan nan nan -14 -15 nan nan nan nan nan nan nan nan nan nan
nan nan nan nan nan nan nan nan nan nan nan nan nan nan nan nan nan nan nan nan nan nan nan nan nan nan nan nan nan nan nan nan nan nan nan nan nan nan nan nan nan nan nan nan nan -21 nan nan nan nan -12 nan -6 -6 nan nan nan nan nan nan nan nan nan nan nan nan nan nan nan nan nan nan -14 -14 -13 -13 nan nan nan nan nan nan nan nan nan nan
nan nan nan nan nan nan nan nan nan nan nan nan nan nan nan nan nan nan nan nan nan nan nan nan nan nan nan nan nan nan nan nan nan nan nan nan nan nan nan nan nan nan nan nan nan nan -22 -24 -24 -22 -16 -9 -7 -7 -6 nan nan nan nan nan nan nan nan nan nan nan nan nan nan nan -44 -27 -20 -20 nan nan nan nan nan nan nan nan nan nan nan nan
nan nan nan nan nan nan nan nan nan nan nan nan nan nan nan nan nan nan nan nan nan nan nan nan nan nan nan nan nan nan nan nan nan nan nan nan nan nan nan nan nan nan nan nan nan nan nan -25 -25 -17 -5 -5 -7 -7 -6 nan nan nan nan nan nan nan nan nan nan -14 nan -25 -44 -44 nan nan nan nan nan nan nan nan nan nan nan nan nan nan nan nan
nan nan nan nan nan nan nan nan nan nan nan nan nan nan nan nan nan nan nan nan nan nan nan nan nan nan nan nan nan nan nan nan nan nan nan nan nan nan nan nan nan nan nan nan nan nan nan nan nan nan nan -0 -3 -3 nan nan nan nan nan -16 -16 -16 -15 -17 -17 -15 -12 -19 nan nan nan nan nan nan nan nan nan nan nan nan nan nan nan nan nan nan
Wind_Speed
1 1 2 2 2 2 2 2 2 2 3 3 3 3 3 3 3 3 4 4 4 4 4 5 5 5 6 9 11 13 14 15 15 15 16 16 16 16 16 16 16 16 16 16 16 16 16 15 15 15 15 15 15 15 15 15 15 15 15 15 16 16 16 16 17 17 17 17 18 18 18 18 17 17 17 16 16 16 16 16 16 16 15 15 16 16
2 2 2 2 2 2 3 2 2 2 3 3 3 3 3 3 3 3 3 4 4 4 4 4 5 5 5 6 9 12 14 15 15 16 16 16 16 16 16 16 16 16 16 16 16 16 15 15 15 15 14 14 15 15 15 15 15 15 16 16 16 16 16 16 17 17 17 17 18 18 18 17 17 17 17 17 17 17 16 16 16 16 16 16 16 16
2 2 2 2 2 2 3 3 2 2 3 3 4 4 3 3 3 3 3 3 3 4 4 4 4 4 4 5 8 12 13 15 16 16 16 16 16 17 17 17 17 16 16 16 16 15 15 15 14 14 14 14 14 15 15 15 16 16 16 16 16 16 16 16 16 16 17 17 17 17 17 17 17 17 17 17 17 17 17 17 17 16 16 16 16 16
1 2 2 2 2 2 2 3 3 3 3 4 4 4 4 3 3 4 3 3 3 3 4 4 4 4 3 4 6 10 13 15 16 16 16 17 17 17 17 17 16 16 16 16 15 15 14 14 14 14 14 14 15 15 15 16 16 16 16 16 16 16 16 16 16 16 16 16 16 16 16 17 17 17 17 17 17 17 17 17 17 17 17 17 17 17
1 2 2 2 2 2 2 3 3 4 4 4 4 4 4 3 3 3 3 3 3 3 4 3 3 3 3 3 5 9 13 15 16 16 17 17 17 17 17 16 16 16 15 15 15 14 14 14 14 14 15 15 15 15 16 16 16 16 16 16 16 16 16 16 15 15 15 15 15 16 16 16 16 16 17 17 17 17 17 17 17 17 17 17 17 17
1 1 2 2 2 2 3 3 3 4 4 4 4 3 3 2 2 2 2 3 3 3 3 3 2 2 2 3 5 9 12 14 15 16 16 16 16 16 16 16 15 15 15 15 14 14 15 15 15 15 16 16 16 16 16 16 16 16 16 16 16 16 16 15 15 15 15 15 15 15 15 15 16 16 16 16 17 17 17 17 17 17 17 17 17 17
2 2 1 2 2 3 3 3 4 4 3 3 3 3 2 2 2 2 2 3 3 3 3 2 2 2 2 3 5 8 10 11 13 14 15 15 16 15 15 15 15 15 15 15 15 15 15 16 16 16 17 17 17 17 17 17 17 16 16 16 16 16 15 15 15 14 14 14 14 14 14 15 15 16 16 16 17 17 17 17 17 17 17 17 17 18
2 2 2 2 3 3 3 3 3 4 4 3 3 2 2 2 2 2 3 3 3 2 2 2 2 2 2 2 4 5 6 7 8 9 11 12 12 13 13 14 14 15 15 15 15 15 16 16 16 17 17 17 17 17 17 17 17 16 16 16 15 15 15 15 14 14 14 13 13 13 14 14 15 15 16 16 17 17 17 17 17 18 18 18 18 18
3 3 3 3 3 3 4 3 3 3 3 3 3 3 3 3 3 3 3 3 2 1 1 1 2 2 2 2 2 3 5 6 6 6 7 7 7 8 10 12 13 14 15 15 15 16 16 16 17 17 18 18 18 17 17 17 16 16 16 15 15 15 15 14 14 14 13 13 13 13 14 14 15 15 16 16 17 17 17 17 18 18 18 18 18 18
3 3 4 3 3 3 4 4 4 4 3 3 3 3 3 3 3 3 3 3 2 1 1 1 2 2 3 2 2 3 5 6 8 9 10 9 9 9 10 10 11 12 14 15 15 16 16 17 17 18 18 18 18 18 17 17 16 16 15 15 15 14 14 14 14 14 13 13 13 13 14 14 15 15 16 16 17 17 17 18 18 18 18 18 19 19
3 3 3 3 3 3 3 3 3 3 3 2 2 3 3 3 3 3 3 2 2 2 1 1 1 2 3 3 3 3 4 5 6 7 9 9 10 10 10 10 10 11 13 14 15 16 16 17 18 18 18 18 18 17 17 16 16 15 15 15 14 14 14 14 14 14 14 14 14 14 14 15 15 16 16 17 17 17 18 18 18 18 18 18 19 19
3 3 3 3 3 3 2 3 3 2 2 2 2 3 3 3 2 2 1 2 2 2 2 2 1 1 2 3 3 4 4 4 4 4 4 4 5 6 6 6 7 8 10 11 12 13 15 16 17 17 17 17 17 17 17 16 16 16 15 15 15 14 14 14 14 14 14 14 15 15 15 15 16 16 16 17 17 18 18 18 18 18 18 18 19 19
3 2 2 2 2 2 2 2 2 2 1 2 2 3 3 2 1 1 1 1 2 2 2 2 2 2 2 2 3 3 3 3 3 3 2 2 2 2 3 3 4 4 5 6 7 8 12 14 15 15 16 16 16 17 17 16 16 16 16 15 15 14 14 14 14 14 15 15 15 16 16 16 16 16 16 17 17 18 18 18 18 18 18 18 18 19
3 2 2 3 2 2 2 2 2 2 2 2 2 3 3 2 1 0 0 1 2 2 2 2 2 2 2 2 3 3 2 2 2 2 2 2 2 2 2 3 4 4 4 4 5 6 8 10 10 11 13 14 14 15 15 16 16 16 16 15 15 15 15 15 15 16 16 16 16 16 16 16 16 16 17 17 17 17 18 18 18 18 18 18 18 18
3 3 3 3 3 2 2 2 2 3 3 2 2 2 2 1 0 0 1 2 2 2 2 2 3 3 2 2 2 2 2 2 2 2 3 3 2 2 3 4 4 4 4 4 5 6 7 7 7 7 8 10 11 12 14 15 16 16 16 16 16 16 16 16 17 17 17 17 17 17 17 17 17 17 17 17 17 17 18 18 18 18 18 18 18 18
3 3 4 3 3 3 3 2 2 3 3 2 2 1 1 1 1 1 1 2 2 2 2 3 3 3 2 2 2 2 2 2 2 3 3 3 3 2 3 4 5 5 4 4 5 5 5 5 5 6 7 9 12 15 16 16 17 17 17 17 17 17 17 17 17 18 18 18 18 17 17 17 17 17 17 17 17 17 17 18 18 18 18 18 18 18
3 3 3 3 3 3 3 3 3 3 2 2 2 1 1 1 1 1 1 1 1 2 2 2 3 3 3 2 2 2 1 2 3 3 4 4 3 3 3 3 5 5 5 5 5 5 5 5 5 6 6 10 13 16 17 17 17 18 18 18 18 18 18 18 18 18 18 18 18 18 18 18 17 17 17 17 17 17 17 18 18 18 18 18 18 18
3 3 3 3 3 3 3 2 3 3 2 2 2 1 1 1 1 1 1 1 1 2 2 2 2 3 3 3 3 2 1 2 3 4 4 5 4 3 3 3 4 5 5 5 5 4 5 5 5 6 7 12 15 17 18 18 18 18 19 19 19 19 19 19 19 19 19 19 19 19 18 18 18 17 17 17 17 17 17 18 18 18 18 18 19 19
4 4 4 4 3 3 3 3 3 3 2 2 2 2 2 1 1 1 1 1 1 2 2 3 3 3 3 3 3 3 2 2 3 4 5 6 5 4 3 3 4 4 5 5 4 4 5 5 6 9 11 14 16 17 18 19 19 19 19 19 19 19 19 19 19 20 20 19 19 19 19 18 18 18 17 17 17 17 17 18 18 18 18 18 19 19
4 4 4 3 3 3 4 4 3 3 3 3 2 2 2 2 2 2 2 1 2 2 3 3 3 3 3 3 3 3 2 3 3 4 5 6 5 4 2 3 3 4 4 4 4 4 4 4 6 8 11 14 16 17 18 19 19 19 19 20 20 20 20 20 20 20 20 20 20 19 19 19 18 18 18 18 17 18 18 18 18 18 18 19 19 19
5 6 5 4 3 3 4 4 4 4 4 3 2 2 2 2 3 3 3 2 2 2 3 3 4 4 3 4 4 3 3 3 4 4 4 4 4 3 2 2 3 4 5 4 4 4 4 4 5 6 8 12 15 17 18 19 19 20 20 20 21 21 21 21 21 21 20 20 20 19 19 19 18 18 18 18 18 18 18 18 18 18 18 19 19 19
6 6 6 5 5 5 5 5 5 4 4 3 2 2 3 3 3 3 3 2 2 3 3 4 4 4 4 4 4 4 3 3 3 4 4 4 4 3 2 2 3 4 5 4 4 4 4 4 5 6 9 13 16 18 19 19 20 20 20 21 21 21 21 21 21 20 20 20 19 19 19 19 19 19 18 18 18 18 18 19 19 19 19 19 19 19
7 7 6 7 7 6 6 5 4 4 3 3 3 3 3 3 3 3 3 3 3 3 4 4 4 4 4 4 4 4 3 3 3 3 3 4 4 4 2 2 3 4 5 4 4 4 4 5 5 6 9 13 16 17 19 19 20 20 21 21 21 21 21 20 20 20 19 19 19 19 19 19 19 19 19 19 19 19 19 19 19 19 19 19 19 19
7 7 6 6 5 5 4 4 3 3 3 3 3 4 3 3 3 3 3 3 3 3 3 4 5 5 6 5 5 4 3 3 2 2 2 4 4 4 3 3 4 5 5 5 4 5 5 5 5 5 6 11 14 17 18 19 20 20 21 21 20 20 20 19 19 19 18 19 19 19 19 20 20 20 20 20 19 19 19 19 19 19 19 19 19 19
7 7 6 5 6 6 5 5 5 5 4 4 4 4 4 4 4 3 2 2 2 3 4 5 6 7 6 5 4 3 2 2 2 1 1 3 4 4 3 3 4 5 6 5 4 4 5 5 5 5 5 8 12 16 18 19 20 20 20 20 19 19 19 18 18 18 19 19 20 20 20 21 21 20 20 20 20 19 19 19 19 19 19 19 19 19
11 11 10 11 12 13 14 13 12 11 11 8 5 4 4 3 3 2 2 2 3 3 4 6 7 7 5 3 2 2 2 1 1 1 1 2 4 5 4 3 3 4 5 5 4 4 5 5 5 5 5 6 9 13 16 17 18 19 19 18 18 18 18 19 19 20 20 21 21 21 21 21 21 21 20 20 20 19 19 19 19 19 19 19 18 18
19 19 19 20 19 19 19 19 19 18 18 15 12 8 5 3 3 3 4 4 3 4 5 7 7 6 4 3 2 2 1 1 1 1 1 2 4 4 4 3 3 4 5 5 4 5 6 7 6 5 5 5 7 9 13 15 16 17 17 17 18 18 19 20 21 21 21 22 22 21 21 21 21 20 20 20 19 19 19 19 19 19 18 17 16 14
21 21 21 21 21 21 20 20 20 20 20 19 18 15 10 5 4 5 6 4 3 4 5 6 6 5 3 3 2 2 2 2 1 1 1 2 3 4 3 3 3 3 4 5 5 5 7 7 6 6 5 5 5 6 9 11 13 14 15 16 18 19 20 20 21 21 21 21 21 21 21 21 20 20 20 19 19 19 19 19 19 18 17 13 9 7
18 19 20 20 20 20 20 19 18 18 19 19 19 17 12 7 6 6 6 4 3 4 5 5 5 4 3 3 3 3 3 3 2 2 1 2 3 3 3 3 3 3 4 5 5 5 5 5 4 4 4 5 4 4 5 7 9 11 12 15 17 18 19 20 20 21 21 21 21 20 20 20 20 20 19 19 19 19 19 19 18 16 12 9 7 5
12 14 14 15 16 15 15 13 14 15 17 18 18 17 12 8 6 6 5 4 4 5 6 5 5 4 4 4 4 4 3 3 2 1 1 1 2 3 3 3 3 3 3 4 5 5 4 3 3 3 3 4 4 4 4 5 6 7 8 11 13 14 17 18 19 19 20 20 20 20 19 19 19 19 19 19 19 19 19 19 17 13 7 6 5 5
8 9 8 8 9 9 8 8 9 10 13 14 15 14 11 7 6 5 4 4 4 5 5 5 4 4 4 4 4 4 3 2 1 1 2 0 2 3 3 3 3 3 2 2 3 5 6 4 3 2 2 3 4 5 5 5 5 5 5 6 7 9 13 15 17 17 18 18 18 19 19 19 19 19 20 20 20 20 19 19 17 13 7 5 5 5
7 7 6 6 6 6 6 6 7 7 8 9 9 9 8 7 6 5 4 4 4 4 4 4 4 4 4 4 4 4 4 3 2 1 0 1 2 3 2 3 3 3 2 1 2 3 5 5 4 3 3 4 5 5 6 6 5 5 5 5 5 7 11 13 14 14 14 15 16 17 18 19 19 20 20 20 20 20 20 20 17 13 8 6 5 5
6 5 5 5 5 5 5 6 6 6 6 6 6 6 6 7 6 6 5 4 4 4 4 4 4 4 4 4 5 5 4 3 3 3 3 2 2 3 2 3 3 4 3 2 2 3 4 5 5 5 5 5 5 5 5 6 5 5 5 5 5 6 8 9 9 9 10 11 13 14 16 17 18 19 20 20 20 20 19 19 18 15 10 7 5 6
5 5 5 5 4 4 5 5 5 5 5 5 5 5 5 5 6 6 5 5 4 5 5 4 4 4 4 4 5 5 5 4 4 4 3 2 2 3 3 3 3 4 4 3 3 3 4 5 5 6 6 6 5 5 5 5 5 5 4 4 4 4 5 5 6 7 8 8 9 9 11 12 14 15 17 17 18 18 18 18 18 17 16 11 8 6
6 6 5 5 5 5 5 5 5 5 5 5 5 5 5 5 5 5 5 5 5 5 5 5 5 5 4 4 5 5 5 4 3 3 2 1 2 3 3 3 3 3 4 4 3 3 4 5 6 7 7 7 6 5 4 4 4 4 4 4 4 4 4 5 5 6 7 7 7 7 7 7 8 10 11 13 15 16 18 18 19 19 19 16 13 10
7 7 7 6 6 6 6 6 6 6 6 6 5 5 5 5 5 5 5 5 5 5 5 5 4 5 5 5 5 6 6 4 4 3 3 2 2 2 3 3 3 3 3 4 4 4 4 6 7 8 8 8 7 6 5 4 3 3 4 4 5 5 5 5 5 6 6 7 7 7 6 6 6 7 8 12 15 17 18 19 19 19 19 19 18 15
8 8 8 7 7 7 7 7 7 7 7 6 5 5 5 5 5 5 5 5 4 4 4 4 4 5 5 5 5 6 6 5 4 4 3 2 2 2 3 4 3 3 3 5 5 6 6 7 7 8 7 7 6 6 6 5 4 4 5 5 5 5 5 6 6 6 6 7 7 7 7 7 7 7 8 12 14 16 17 18 18 18 19 19 19 19
8 8 8 7 7 7 7 7 7 7 6 6 6 6 6 5 5 5 4 4 4 4 4 4 4 5 6 7 7 6 6 6 5 5 4 3 2 3 4 4 4 4 4 5 6 6 6 7 8 8 6 6 7 8 8 7 6 6 6 5 5 6 6 6 6 6 5 6 7 8 8 8 7 7 8 9 9 9 10 10 11 13 15 15 16 18
7 7 7 7 7 7 7 7 6 6 6 5 5 5 4 4 4 3 3 3 3 3 3 4 4 4 5 6 7 8 8 7 7 6 5 4 3 3 5 5 6 6 5 5 5 6 6 7 7 7 7 7 8 8 7 6 6 7 7 7 6 5 5 5 5 5 5 6 7 9 8 8 7 7 6 6 6 6 6 6 7 8 9 8 10 13
5 5 5 6 6 5 6 6 5 4 4 4 4 4 3 3 2 2 2 2 2 3 3 3 4 4 5 6 7 7 8 7 6 6 5 4 4 4 5 5 6 6 6 5 5 6 6 7 7 8 8 8 8 8 7 7 7 7 9 7 6 5 5 5 5 5 5 5 6 7 7 6 6 6 6 6 6 6 6 6 6 7 7 6 6 7
6 5 4 4 3 4 4 4 3 2 3 3 3 3 3 2 2 2 2 1 2 2 2 3 3 4 5 5 5 6 6 6 6 6 5 5 6 5 5 6 6 6 6 6 6 6 6 7 8 8 8 8 9 10 10 9 10 10 11 9 8 8 8 7 7 6 5 5 5 5 6 7 7 8 7 8 7 7 7 7 7 7 7 6 5 5
8 7 5 3 2 2 2 2 3 3 3 3 3 3 3 3 3 3 3 2 2 2 3 3 3 4 4 5 5 5 5 5 6 6 6 7 7 7 6 6 6 5 6 6 7 7 7 7 8 8 8 8 8 9 9 10 10 10 10 9 10 10 10 8 6 4 4 5 5 5 7 7 7 7 8 8 8 7 8 8 9 9 9 7 6 5
8 7 6 4 3 2 3 3 3 3 3 3 3 4 4 4 4 4 4 3 3 3 4 3 3 3 4 4 4 4 4 4 5 6 6 7 7 7 7 7 7 6 6 6 7 7 7 8 8 8 8 8 8 9 10 10 10 10 9 9 9 9 7 6 4 4 4 6 6 6 7 7 7 7 8 8 8 7 8 9 11 12 11 9 7 6
6 5 5 4 3 2 3 3 3 3 3 4 4 4 4 4 4 5 4 4 3 3 3 3 3 3 4 4 5 4 4 4 4 5 6 7 8 8 8 8 7 7 7 7 7 7 7 8 8 8 7 7 8 9 10 10 10 9 9 9 9 9 8 7 7 7 7 7 6 6 6 7 7 7 7 8 8 7 7 7 8 8 9 8 7 7
5 4 4 3 3 3 3 3 3 4 4 4 4 4 4 4 5 5 4 4 3 3 3 2 2 2 3 4 4 4 4 3 3 4 4 6 9 10 8 7 7 7 8 8 7 7 7 7 7 7 7 7 8 9 10 10 10 10 10 10 10 10 9 9 9 9 8 8 7 7 7 6 7 8 8 8 8 8 7 7 7 7 6 6 6 6
5 5 4 4 3 4 4 4 4 4 4 4 4 4 4 4 4 4 5 4 4 3 3 2 2 2 4 4 4 4 4 4 4 3 3 4 5 5 6 6 6 7 7 7 8 8 8 8 8 7 7 8 8 9 9 10 10 10 10 10 10 9 9 9 9 9 9 9 8 8 8 7 8 8 9 9 9 9 8 8 7 7 6 6 6 6
5 5 5 4 4 4 4 4 4 4 4 4 4 4 4 4 4 4 4 4 4 3 3 2 2 3 4 4 4 4 4 5 5 4 3 3 3 3 4 4 5 6 6 6 7 8 8 8 8 8 8 8 9 9 9 9 9 10 10 10 9 9 9 9 9 8 9 9 9 9 8 8 8 9 9 9 9 8 8 7 7 6 6 6 7 7
6 6 6 5 4 4 3 3 3 4 4 4 4 3 4 4 4 4 3 3 3 3 3 3 3 3 4 4 4 4 5 6 5 5 4 3 3 3 3 3 3 4 5 6 7 8 8 9 9 9 9 9 9 10 10 9 9 9 9 9 9 9 10 10 9 9 9 9 9 9 7 7 7 8 9 10 10 9 9 8 8 7 7 7 7 7
5 6 6 5 4 4 4 3 3 4 4 4 4 3 3 4 5 6 4 3 3 3 3 3 3 3 4 4 4 4 5 5 5 5 4 4 3 3 3 3 3 3 4 5 6 6 7 8 9 10 9 9 10 10 10 10 9 9 9 9 9 9 10 10 9 9 9 9 9 8 6 6 7 8 9 10 11 11 11 10 9 8 7 7 7 7
5 5 5 5 5 5 4 4 4 5 5 4 4 4 3 4 4 4 3 3 3 3 3 3 3 3 4 4 4 4 5 5 5 4 4 3 3 3 3 3 3 3 4 4 4 4 5 5 7 8 10 11 11 11 10 10 9 9 9 8 8 8 9 9 9 9 8 9 8 8 6 6 7 8 8 10 12 13 12 11 10 9 7 6 6 7
5 5 5 5 5 5 5 5 5 5 5 5 5 4 4 3 3 3 3 3 3 3 3 3 3 3 4 5 5 5 6 5 5 5 5 3 3 3 3 3 3 4 4 4 4 4 4 4 5 6 8 11 12 11 8 8 8 8 8 8 7 7 7 8 8 8 9 9 8 8 8 8 8 8 8 9 11 12 12 12 11 9 7 6 6 7
Wind_Direction
304 309 320 350 346 319 289 275 276 285 288 287 284 283 285 290 291 293 297 299 298 295 294 292 291 292 294 301 305 308 309 310 310 310 309 307 306 305 304 303 302 301 300 299 299 298 297 296 295 295 295 295 295 295 295 295 295 295 296 296 296 297 297 297 298 298 298 299 299 299 299 299 299 299 298 296 295 293 291 289 287 286 284 283 282 281
317 319 321 335 330 311 291 289 288 289 292 293 292 292 296 298 297 295 294 291 288 288 290 292 293 294 293 298 305 309 310 310 310 309 308 307 306 305 304 303 302 301 300 300 299 298 297 296 295 295 295 295 295 295 296 295 295 296 296 296 296 296 297 297 298 298 298 299 299 299 299 299 299 298 297 295 293 291 290 288 287 285 284 283 282 281
316 316 309 313 309 298 288 295 295 292 291 291 292 294 296 294 291 288 285 283 283 284 286 288 291 292 292 297 306 310 310 309 309 308 308 307 306 305 304 303 302 301 301 300 299 298 297 296 295 294 294 294 294 295 295 295 295 295 295 295 295 296 296 296 296 297 297 297 298 298 298 297 296 295 294 293 292 290 289 288 287 286 285 283 282 282
307 300 294 297 292 282 277 289 295 297 296 292 292 291 289 286 282 277 273 274 278 282 282 281 283 286 290 298 306 309 309 308 308 308 308 308 307 306 305 304 303 302 301 300 299 298 296 295 294 294 293 294 294 294 295 295 295 295 295 295 294 294 294 294 295 295 295 296 296 296 296 295 295 294 294 293 292 291 290 289 288 286 285 284 283 282
292 287 290 297 293 287 280 289 294 297 296 293 289 286 282 276 273 273 273 276 278 281 279 277 277 279 287 296 303 306 307 308 309 310 310 310 309 308 308 307 306 305 303 302 300 298 297 296 295 294 294 294 294 294 294 295 295 294 294 294 294 294 293 294 294 294 294 294 295 295 295 295 295 294 294 293 292 291 290 289 287 286 285 284 284 283
281 281 293 294 291 290 293 294 295 294 294 289 284 279 275 270 274 282 290 291 287 282 277 272 270 273 283 290 299 304 307 309 310 311 311 311 310 310 309 308 308 307 306 304 303 301 299 298 297 296 296 295 295 295 294 294 294 294 294 294 294 294 294 294 294 294 294 294 294 294 295 295 295 294 294 292 291 290 289 288 287 286 285 285 284 284
279 281 294 290 287 286 288 288 287 286 284 285 284 283 280 279 285 291 291 290 287 283 278 274 274 280 287 291 299 304 308 310 311 310 310 309 309 308 308 308 309 308 307 306 305 303 301 300 299 298 296 296 295 294 294 294 294 294 294 294 294 294 294 294 294 294 293 293 294 294 295 295 294 294 293 292 290 289 288 287 287 286 286 285 285 285
282 285 284 280 282 284 282 279 276 274 272 277 284 293 301 299 296 290 286 285 284 282 282 291 299 303 300 297 302 306 308 308 307 306 306 304 304 304 305 306 308 308 308 307 305 304 302 301 300 299 298 297 296 296 295 295 295 294 294 295 295 295 294 294 293 293 292 293 293 293 294 294 294 293 293 292 291 290 289 288 288 287 287 287 286 286
271 278 277 268 271 277 282 278 271 264 264 269 276 286 296 297 294 291 289 289 288 285 293 321 319 313 303 300 302 304 303 302 301 300 300 298 297 299 303 306 308 309 308 307 306 305 304 303 302 302 301 300 300 299 298 298 297 296 296 295 295 294 293 293 292 292 291 292 292 293 294 294 294 294 293 292 292 291 290 290 289 288 288 288 287 287
257 264 271 265 261 263 272 275 272 265 259 261 264 268 273 281 285 287 290 291 295 303 330 330 317 310 305 303 301 300 299 298 298 297 298 297 299 302 305 308 310 310 309 308 308 308 307 306 306 305 304 304 303 303 302 301 300 299 297 296 295 293 292 291 290 290 290 291 292 293 294 295 295 294 294 293 293 292 291 290 290 289 288 288 288 287
254 255 262 264 261 255 253 260 263 265 264 269 271 268 261 260 262 269 283 292 302 314 319 305 301 302 308 308 304 299 297 295 294 293 294 295 299 302 305 307 307 308 308 309 309 309 308 307 306 306 305 305 305 304 304 303 302 300 297 295 293 291 290 289 288 288 289 291 292 293 295 295 295 295 295 294 293 293 292 291 290 289 288 288 288 287
250 252 254 258 259 258 254 258 264 269 277 281 285 284 277 255 234 224 259 288 301 306 305 294 286 286 293 299 301 299 295 290 286 283 284 290 295 300 303 304 305 306 308 308 308 307 306 305 304 304 304 304 304 304 303 302 301 299 296 294 292 290 289 288 288 289 290 291 293 294 295 295 295 295 295 294 293 293 292 291 290 289 289 288 287 287
243 246 250 255 258 260 264 273 282 287 286 274 269 268 268 256 230 184 219 277 287 292 294 297 294 287 276 280 286 290 290 286 282 278 281 290 296 300 304 305 304 305 307 306 304 303 303 302 302 302 302 302 302 301 301 299 298 296 295 293 292 290 290 289 290 290 291 292 293 294 295 295 294 294 294 294 293 293 292 291 290 289 289 288 287 286
242 246 251 256 258 259 258 262 268 271 268 255 248 245 244 245 242 47 307 286 280 280 289 297 297 295 288 278 273 274 281 287 292 299 312 308 307 310 318 313 309 306 305 302 298 295 297 299 300 300 299 298 298 298 296 295 294 294 293 292 292 291 291 291 291 292 292 293 293 293 294 294 294 294 294 293 293 292 292 291 290 289 288 287 287 286
237 241 248 252 253 252 248 249 252 254 256 249 247 247 251 271 304 337 310 291 290 295 311 303 297 291 282 273 269 272 288 305 315 321 322 313 312 315 323 314 308 303 301 298 295 293 294 295 293 292 291 291 290 290 290 291 292 292 292 292 293 292 292 292 292 292 292 292 292 292 293 293 293 293 293 293 293 292 291 291 290 289 288 287 286 286
227 231 240 246 248 246 241 240 245 250 253 249 246 249 268 283 285 277 275 283 294 309 321 313 307 299 281 270 271 285 315 323 322 318 316 309 307 311 319 309 303 298 296 293 291 291 292 289 286 283 284 285 287 289 292 293 294 294 294 293 293 293 292 292 292 292 292 292 292 293 293 293 293 293 293 293 293 292 291 291 290 289 288 287 287 286
225 228 235 242 246 248 243 239 240 244 250 249 244 236 228 234 234 237 253 280 302 313 310 309 308 306 300 296 291 291 311 321 315 310 309 303 300 300 302 296 293 292 292 288 286 286 288 286 284 283 281 284 289 292 295 296 296 296 295 294 294 293 293 293 292 292 292 292 293 293 293 293 293 293 293 293 293 292 292 291 290 289 288 288 287 287
225 226 232 240 245 247 247 249 253 257 258 255 250 241 227 214 205 207 238 276 297 300 297 294 290 289 296 300 292 281 286 312 312 308 305 299 296 293 288 282 281 283 285 284 282 281 282 281 280 281 283 291 294 296 298 298 298 296 296 295 295 294 294 294 294 294 294 294 294 294 293 293 293 293 293 293 292 292 292 291 290 289 288 288 287 287
231 231 233 238 244 250 253 256 260 263 262 255 253 256 260 251 239 225 239 256 266 274 280 283 281 277 278 280 279 278 288 311 313 308 303 297 295 293 284 277 276 278 280 279 279 278 277 276 278 283 288 294 297 298 299 298 297 297 296 296 296 297 297 297 296 296 295 295 294 294 293 293 292 292 292 292 292 292 291 290 290 289 288 288 287 287
239 238 235 237 244 251 254 251 250 249 251 256 262 268 272 278 279 276 271 268 264 263 265 269 272 273 273 274 277 286 316 325 316 304 296 292 291 289 280 274 276 279 279 278 277 276 276 275 280 287 291 294 296 297 297 297 297 297 297 298 298 298 298 298 298 297 296 295 294 293 292 292 292 292 292 292 292 291 290 290 289 288 288 287 287 287
242 242 236 234 240 247 251 248 246 247 252 263 274 282 280 283 282 278 273 271 269 268 268 268 269 270 272 278 284 298 326 323 310 299 293 289 287 284 277 271 275 279 283 281 277 275 276 278 280 284 288 292 293 295 295 296 297 297 298 299 299 299 299 298 298 296 295 294 293 292 292 291 291 291 291 291 291 290 290 289 289 288 288 287 287 287
241 242 239 236 239 245 251 252 249 247 252 260 268 272 274 276 275 271 266 265 265 267 269 269 271 275 280 285 291 299 316 303 291 287 291 289 287 284 278 275 280 284 286 286 285 283 280 280 281 282 284 289 292 293 295 296 296 297 298 298 299 299 298 297 296 295 294 293 292 291 291 291 291 291 291 291 290 290 290 289 289 288 288 288 287 287
239 242 243 240 240 243 248 250 248 245 243 245 247 250 254 256 258 258 258 254 257 261 266 269 273 278 282 283 285 285 280 262 255 260 274 282 286 290 291 292 291 289 287 290 292 291 286 282 280 280 283 288 290 292 294 295 296 296 297 297 297 297 297 296 295 294 293 293 292 292 292 292 292 292 291 291 291 290 290 289 289 288 288 288 287 287
251 251 249 245 243 242 244 244 242 240 236 235 236 236 237 234 233 233 235 241 253 264 273 279 282 281 277 274 271 266 250 232 222 227 257 277 285 291 301 305 299 293 289 288 289 289 287 283 279 278 280 286 289 290 292 293 294 295 296 296 296 296 296 296 296 296 296 296 296 295 294 294 293 293 292 292 291 290 290 289 289 288 288 288 288 288
262 262 261 258 253 250 247 245 242 241 240 237 234 233 232 230 231 233 236 248 263 276 285 286 283 279 276 273 268 258 242 212 188 184 252 278 285 289 296 300 295 291 289 289 287 286 286 284 282 280 279 283 286 288 290 291 292 293 294 295 296 297 298 299 301 301 301 300 299 298 296 296 295 294 293 292 291 290 289 289 289 288 288 288 288 287
258 259 259 260 260 259 257 256 254 253 251 248 241 231 224 222 227 240 254 258 265 273 278 277 275 273 273 269 261 254 249 213 177 172 235 280 288 290 292 290 286 285 289 290 291 289 289 287 285 283 280 280 283 285 287 288 290 292 294 296 299 301 303 304 304 304 302 301 299 298 297 295 294 293 292 291 291 290 289 289 289 288 288 288 288 287
258 259 260 261 261 262 262 262 262 261 260 258 255 249 237 225 230 245 250 249 252 258 264 268 270 272 272 264 255 249 246 242 214 203 224 271 281 285 289 287 284 285 291 292 291 290 289 288 287 286 282 278 278 281 283 287 291 294 297 301 303 305 305 304 303 302 301 299 298 297 296 295 294 293 293 292 291 290 289 289 289 289 289 288 288 287
259 260 261 261 262 263 264 265 265 265 265 264 262 260 255 246 242 246 248 246 246 250 255 261 267 272 276 269 263 261 260 264 255 241 229 255 269 276 285 290 290 291 295 294 292 288 285 284 283 282 279 276 274 277 282 290 297 301 305 305 305 304 303 301 300 299 298 298 297 296 296 295 294 294 293 293 292 291 291 290 290 290 290 289 288 286
261 261 262 263 264 265 266 268 268 269 269 268 266 264 260 253 247 247 251 247 245 247 252 255 260 267 277 281 282 280 275 269 258 240 212 242 261 272 286 295 298 300 305 301 298 291 280 274 272 272 272 275 277 282 289 301 305 307 306 303 301 300 299 298 297 297 296 296 296 296 295 295 295 295 295 294 294 294 293 293 293 292 291 289 285 281
257 259 260 261 263 265 267 269 270 270 269 268 267 265 261 255 250 248 251 244 242 246 252 254 258 264 278 289 291 287 278 267 247 210 145 230 268 279 295 299 301 304 313 310 305 299 289 275 262 259 270 285 293 300 303 306 305 302 299 298 296 295 295 295 295 295 296 296 296 296 296 296 297 297 297 297 297 297 296 296 295 294 290 285 280 276
244 245 248 250 252 254 256 257 260 262 263 263 262 261 258 254 250 247 245 239 237 240 246 251 256 264 274 284 287 285 281 270 234 168 111 248 276 284 299 298 297 297 304 308 306 303 301 294 281 271 286 300 302 301 299 297 295 292 290 290 290 290 292 293 294 295 296 296 297 298 298 299 300 300 299 299 299 298 297 296 295 294 288 282 278 274
235 234 234 233 233 235 238 240 243 245 248 250 251 250 249 247 245 241 236 229 224 225 232 242 251 259 263 265 269 272 279 278 271 257 359 277 279 282 290 291 292 294 296 282 278 286 295 298 300 300 302 300 297 295 293 292 291 290 290 289 289 290 292 294 295 296 297 299 300 300 301 301 300 300 299 298 297 296 295 295 294 292 288 282 277 274
233 231 228 227 227 228 230 231 232 232 233 233 234 235 237 238 237 234 226 215 207 206 213 227 240 250 256 256 259 264 269 273 278 283 288 280 279 283 288 290 293 296 300 284 265 262 274 287 296 301 299 294 292 291 292 293 292 291 291 290 289 290 292 295 296 298 300 300 301 301 300 299 298 297 296 296 295 294 294 293 292 291 288 285 280 277
237 234 231 229 230 231 232 231 230 228 227 226 224 223 222 225 227 225 217 207 200 198 202 212 225 238 249 255 259 262 265 263 268 275 285 278 278 284 291 291 293 295 300 292 283 275 273 280 289 296 297 295 292 290 291 292 291 289 286 286 287 291 294 299 300 300 299 299 298 296 296 295 294 293 293 292 292 292 292 291 291 290 290 289 286 284
242 240 238 236 236 237 239 237 234 232 229 225 221 217 213 213 214 213 208 204 200 199 200 204 211 220 230 244 256 263 265 261 263 272 290 282 284 288 292 286 288 293 296 291 290 289 284 284 287 291 295 297 295 290 285 284 285 286 286 288 291 294 298 301 300 298 296 294 292 290 289 287 286 287 287 288 289 290 291 291 291 291 291 290 288 287
239 239 238 236 235 236 238 237 236 234 232 226 219 211 207 205 204 204 203 202 203 205 207 208 209 211 217 229 243 255 263 265 272 282 291 284 283 285 286 281 284 290 291 288 287 286 285 287 288 289 290 292 293 292 289 287 289 293 297 298 298 297 296 295 293 291 290 289 288 286 285 283 282 282 284 287 289 290 291 291 291 291 290 289 287 285
235 236 235 232 231 232 234 234 233 231 230 225 218 210 205 203 202 201 201 201 203 207 213 217 219 221 224 228 237 248 260 267 274 279 281 273 267 269 273 278 280 280 279 283 285 286 286 288 288 288 285 284 287 293 300 304 304 302 299 299 298 295 291 288 285 282 282 283 283 284 285 285 286 286 287 289 290 291 291 290 289 288 287 286 285 283
235 236 235 230 229 229 232 231 230 228 226 221 216 210 205 202 200 198 198 197 199 204 213 221 228 235 238 242 246 251 259 266 270 272 270 262 257 259 266 275 276 275 271 275 279 282 284 284 286 287 287 283 283 287 295 301 303 302 299 296 293 288 285 282 279 276 277 280 284 286 288 288 288 288 288 288 288 288 287 285 284 283 283 283 282 282
236 237 236 233 231 229 230 231 230 227 223 216 209 202 196 193 192 190 190 191 194 200 208 217 228 238 243 249 253 257 261 264 266 266 265 258 252 253 262 269 272 272 270 268 269 271 273 274 277 281 286 288 289 289 292 294 296 298 300 298 292 284 277 277 279 280 281 284 286 288 288 287 286 285 284 284 283 283 282 282 280 280 280 281 282 281
244 243 241 237 234 231 231 231 229 224 214 203 191 180 171 168 168 174 181 191 200 207 213 221 231 241 247 251 254 257 259 261 262 263 261 253 247 245 251 259 265 269 269 265 261 261 262 266 270 273 277 283 288 291 294 292 293 296 300 300 297 293 292 291 289 286 283 280 281 283 284 284 283 282 283 283 283 282 282 283 282 281 281 280 280 281
263 259 253 245 238 234 232 228 215 194 175 164 160 160 160 157 159 166 181 200 217 226 231 240 248 254 257 255 253 253 254 256 257 255 253 247 243 241 243 249 255 261 264 262 259 256 255 261 266 270 272 277 281 284 285 287 290 294 297 295 295 295 297 294 289 284 279 277 277 280 286 289 290 290 289 287 285 282 280 280 280 279 278 273 270 272
263 264 262 253 238 221 207 181 161 150 144 146 156 167 173 171 171 175 183 198 215 224 224 231 244 255 262 261 257 252 249 249 249 248 248 243 239 237 238 243 246 251 255 257 257 255 253 256 261 265 269 274 278 282 283 285 287 290 290 290 293 295 294 289 284 280 282 285 286 288 290 291 291 290 288 285 283 279 277 275 275 275 276 272 267 263
255 258 260 253 234 199 174 159 153 153 155 164 176 184 184 180 179 183 189 199 211 218 220 221 228 240 255 261 262 259 253 248 245 244 245 241 237 235 236 237 237 239 242 250 255 256 255 255 257 261 265 270 273 277 281 285 287 287 286 288 292 295 295 294 294 293 290 290 289 289 288 286 285 283 282 281 280 279 276 274 273 273 272 272 269 265
252 255 257 251 232 202 180 176 174 175 175 184 190 193 191 187 187 191 198 205 212 217 219 217 223 238 252 261 266 268 265 258 249 244 245 244 240 236 236 233 232 232 233 240 249 256 260 258 258 259 263 266 269 272 276 281 284 285 285 286 286 286 285 292 298 300 296 291 288 285 282 281 282 282 281 280 278 276 274 271 268 266 266 265 264 263
246 248 248 242 227 211 201 197 192 189 188 194 197 198 196 194 196 199 205 209 213 214 212 205 214 241 254 258 264 270 274 272 265 257 253 254 251 248 241 233 230 229 230 234 240 247 255 260 263 264 265 265 266 268 272 278 281 284 284 286 285 284 281 286 291 294 293 290 288 284 280 280 281 282 282 281 279 276 274 271 270 268 266 263 262 263
243 244 244 237 228 220 213 203 197 195 198 202 203 202 199 198 200 204 207 207 208 207 200 189 202 231 253 261 269 276 282 282 280 275 268 265 262 257 248 237 231 228 229 233 237 240 245 254 261 267 271 269 266 265 267 273 278 282 284 287 287 287 285 286 286 287 287 288 287 285 283 282 282 283 283 284 282 280 277 275 275 275 275 273 271 269
238 240 242 240 235 229 220 207 199 199 204 207 208 206 202 199 200 204 207 201 198 196 194 192 207 228 247 259 269 276 282 285 285 282 275 270 268 266 262 250 239 233 232 236 239 242 245 249 254 260 266 270 271 270 269 271 275 279 283 287 288 288 287 286 286 285 285 285 285 285 286 285 284 283 284 286 286 285 284 282 281 280 280 279 277 275
236 239 242 242 240 236 229 216 209 207 211 212 212 210 206 201 201 203 204 196 192 193 198 203 218 233 247 256 262 267 273 278 281 283 282 277 272 268 266 264 256 250 247 249 251 252 252 251 251 253 256 263 269 273 275 275 275 277 280 284 285 285 284 284 285 285 283 281 280 280 281 283 286 289 292 293 293 291 290 288 286 283 280 280 279 278
237 239 243 243 243 240 235 225 219 217 218 218 218 216 211 208 207 205 198 188 186 190 199 211 224 237 250 257 261 266 270 274 277 280 282 281 278 275 272 271 270 269 267 263 261 260 261 258 253 250 250 255 262 269 274 275 275 275 277 278 279 280 281 282 283 283 283 282 281 280 281 285 290 295 299 298 295 293 292 291 288 286 283 281 279 277
236 237 240 241 242 241 238 231 226 225 224 221 220 218 214 209 205 199 187 180 181 189 200 210 222 236 251 259 263 266 268 271 273 275 276 276 276 276 277 278 278 277 277 272 269 268 269 267 261 255 251 252 255 261 269 272 274 274 274 273 274 276 278 281 283 285 286 288 291 293 295 296 297 298 298 295 293 292 292 291 289 287 285 282 280 277
233 232 233 235 236 237 236 232 230 228 226 223 220 218 212 206 199 190 178 177 184 194 204 209 221 236 250 259 263 265 266 268 269 271 272 273 275 276 277 277 277 278 279 279 280 280 282 282 279 270 259 254 253 255 262 267 272 275 275 274 275 277 279 283 287 290 294 297 299 301 302 300 298 297 295 293 293 292 292 290 289 288 288 287 285 282